Montgomery, NY

2:28 PM EDT on March 24, 2017 (GMT -0400)
Orange County

Weather History for KMGJ - November, 2011

Change the Weather History Date:

Tuesday, November 15, 2011

  Actual Average (KSWF) Record (KSWF)
Temperature  
Mean Temperature 56 °F -  
Max Temperature 62 °F 47 °F 87 °F (2013)
Min Temperature 51 °F 30 °F 15 °F (1986)
Degree Days  
Heating Degree Days 8    
Growing Degree Days 6 (Base 50)    
Moisture  
Dew Point 51 °F    
Average Humidity 79    
Maximum Humidity 93    
Minimum Humidity 67    
Precipitation  
Precipitation 0.01 in - - ()
Sea Level Pressure  
Sea Level Pressure 29.83 in    
Wind  
Wind Speed 6 mph (SW)    
Max Wind Speed 10 mph    
Max Gust Speed -    
Visibility 10 miles    
Events Rain    
Averages and records for this station are not official NWS values.
T = Trace of Precipitation, MM = Missing Value Source: NWS Daily Summary

Daily Weather History Graph

Daily Weather History Graph

Search for Another Location

Airport or City:

Trip Planner

Search our weather history database for the weather conditions in past years. The results will help you decide how hot, cold, wet, or windy it might be!

Date:

Astronomy

Nov. 15, 2011 Rise Set
Actual Time 6:45 AM EST 4:37 PM EST
Civil Twilight 6:15 AM EST 5:07 PM EST
Nautical Twilight 5:42 AM EST 5:40 PM EST
Astronomical Twilight 5:09 AM EST 6:13 PM EST
Moon 8:43 PM EST (11/15) 10:43 AM EST (11/15)
Length of Visible Light 10h 51m
Length of Day
9h 51m
Waning Gibbous, 79% of the Moon is Illuminated
Nov 15
Waning Gibbous
Nov 18
Last Quarter
Nov 25
New
Dec 2
First Quarter
Dec 10
Full

Hourly Weather History & Observations

Time (EST) Temp. Dew Point Humidity Pressure Visibility Wind Dir Wind Speed Gust Speed Precip Events Conditions
12:54 AM 62.1 °F 51.1 °F 67% 29.74 in 10.0 mi WSW 8.1 mph - 0.00 in   Overcast
1:54 AM 60.1 °F 52.0 °F 75% 29.75 in 10.0 mi SSW 5.8 mph - N/A   Overcast
2:54 AM 60.1 °F 52.0 °F 75% 29.74 in 10.0 mi SW 6.9 mph - N/A   Overcast
3:54 AM 59.0 °F 51.1 °F 75% 29.75 in 10.0 mi SW 5.8 mph - N/A   Overcast
4:54 AM 59.0 °F 51.1 °F 75% 29.70 in 10.0 mi SSW 4.6 mph - N/A   Overcast
5:54 AM 60.1 °F 51.1 °F 72% 29.75 in 10.0 mi WSW 6.9 mph - N/A   Overcast
6:54 AM 60.1 °F 51.1 °F 72% 29.78 in 10.0 mi WSW 5.8 mph - 0.00 in   Overcast
8:54 AM 60.1 °F 52.0 °F 75% 29.81 in 10.0 mi WSW 6.9 mph - N/A   Overcast
9:54 AM 60.1 °F 52.0 °F 75% 29.82 in 10.0 mi WSW 9.2 mph - 0.00 in Rain Light Rain
10:54 AM 61.0 °F 52.0 °F 72% 29.83 in 10.0 mi WSW 10.4 mph - 0.00 in Rain Light Rain
11:54 AM 61.0 °F 52.0 °F 72% 29.82 in 10.0 mi WSW 8.1 mph - 0.00 in   Overcast
12:54 PM 61.0 °F 51.1 °F 70% 29.83 in 10.0 mi West 4.6 mph - N/A   Overcast
1:54 PM 60.1 °F 53.1 °F 78% 29.83 in 10.0 mi SW 4.6 mph - 0.00 in Rain Light Rain
2:54 PM 60.1 °F 52.0 °F 75% 29.83 in 10.0 mi WSW 3.5 mph - 0.00 in   Overcast
3:54 PM 59.0 °F 52.0 °F 78% 29.86 in 10.0 mi SSW 3.5 mph - 0.00 in Rain Light Rain
4:54 PM 55.9 °F 51.1 °F 84% 29.86 in 10.0 mi Calm Calm - 0.01 in   Overcast
5:54 PM 55.9 °F 50.0 °F 80% 29.91 in 10.0 mi SW 4.6 mph - N/A   Overcast
7:54 PM 52.0 °F 50.0 °F 93% 29.93 in 10.0 mi Calm Calm - N/A   Scattered Clouds
8:54 PM 51.1 °F 48.9 °F 92% 29.93 in 10.0 mi Calm Calm - N/A   Mostly Cloudy
9:54 PM 52.0 °F 50.0 °F 93% 29.93 in 10.0 mi Calm Calm - 0.00 in Rain Light Rain
10:54 PM 52.0 °F 50.0 °F 93% 29.94 in 10.0 mi SW 3.5 mph - 0.00 in   Mostly Cloudy
11:54 PM 51.1 °F 48.9 °F 92% 29.94 in 10.0 mi Calm Calm - N/A   Partly Cloudy